Weather History for Yankton, SD

Change the Weather History Date:

Tuesday, May 14, 2013

  Actual Average Record
Temperature  
Mean Temperature 77 °F -  
Max Temperature 95 °F 72 °F 95 °F (1987)
Min Temperature 59 °F 44 °F 28 °F (2004)
Cooling Degree Days 12    
Growing Degree Days 27 (Base 50)    
Moisture  
Dew Point 46 °F    
Average Humidity 36    
Maximum Humidity 72    
Minimum Humidity 19    
Precipitation  
Precipitation 0.00 in - - ()
Sea Level Pressure  
Sea Level Pressure 29.69 in    
Wind  
Wind Speed 11 mph (West)    
Max Wind Speed 26 mph    
Max Gust Speed 33 mph    
Visibility 10 miles    
Events      
Averages and records for this station are not official NWS values.
T = Trace of Precipitation, MM = Missing Value Source: NWS Daily Summary

Daily Weather History Graph

Daily Weather History Graph

Search for Another Location

Airport:

Trip Planner

Search our weather history database for the weather conditions in past years. The results will help you decide how hot, cold, wet, or windy it might be!

Date:

Astronomy

May. 14, 2013 Rise Set
Actual Time 6:07 AM CDT 8:45 PM CDT
Civil Twilight 5:34 AM CDT 9:17 PM CDT
Nautical Twilight 4:54 AM CDT 9:58 PM CDT
Astronomical Twilight 4:07 AM CDT 10:45 PM CDT
Moon 9:48 AM CDT (5/14) No Moon Set
Length of Visible Light 15h 42m
Length of Day
14h 37m
Waxing Crescent, 19% of the Moon is Illuminated
May 14
Waxing Crescent
May 17
First Quarter
May 24
Full
May 31
Last Quarter
Jun 8
New

Hourly Weather History & Observations

Time (CDT) Temp. Dew Point Humidity Pressure Visibility Wind Dir Wind Speed Gust Speed Precip Events Conditions
12:15 AM 66.2 °F 46.4 °F 49% 29.77 in 10.0 mi SW 5.8 mph - N/A   Clear
12:35 AM 68.0 °F 46.4 °F 46% 29.77 in 10.0 mi SW 5.8 mph - N/A   Clear
12:55 AM 68.0 °F 48.2 °F 49% 29.77 in 10.0 mi SSW 6.9 mph - N/A   Clear
1:15 AM 66.2 °F 48.2 °F 52% 29.76 in 10.0 mi SSW 8.1 mph - N/A   Clear
1:35 AM 66.2 °F 48.2 °F 52% 29.75 in 10.0 mi SW 9.2 mph - N/A   Clear
1:55 AM 66.2 °F 48.2 °F 52% 29.75 in 10.0 mi SSW 5.8 mph - N/A   Clear
2:15 AM 68.0 °F 48.2 °F 49% 29.75 in 10.0 mi SSW 8.1 mph - N/A   Clear
2:35 AM 68.0 °F 48.2 °F 49% 29.75 in 10.0 mi SSW 6.9 mph - N/A   Clear
2:55 AM 68.0 °F 46.4 °F 46% 29.74 in 10.0 mi SSW 6.9 mph - N/A   Clear
3:15 AM 68.0 °F 46.4 °F 46% 29.74 in 10.0 mi South 4.6 mph - N/A   Clear
3:35 AM 60.8 °F 48.2 °F 63% 29.73 in 10.0 mi SSE 4.6 mph - N/A   Clear
3:55 AM 64.4 °F 48.2 °F 56% 29.73 in 10.0 mi South 4.6 mph - N/A   Clear
4:15 AM 60.8 °F 46.4 °F 59% 29.72 in 10.0 mi ESE 3.5 mph - N/A   Clear
4:35 AM 62.6 °F 48.2 °F 59% 29.72 in 10.0 mi SSE 4.6 mph - N/A   Clear
4:55 AM 59.0 °F 46.4 °F 63% 29.71 in 10.0 mi SSE 6.9 mph - N/A   Clear
5:15 AM 60.8 °F 48.2 °F 63% 29.71 in 10.0 mi SSE 8.1 mph - N/A   Clear
5:35 AM 62.6 °F 48.2 °F 59% 29.70 in 10.0 mi South 6.9 mph - N/A   Clear
5:55 AM 60.8 °F 48.2 °F 63% 29.70 in 10.0 mi South 5.8 mph - N/A   Clear
6:15 AM 62.6 °F 48.2 °F 59% 29.69 in 10.0 mi South 6.9 mph - N/A   Clear
6:35 AM 64.4 °F 48.2 °F 56% 29.68 in 10.0 mi SSE 6.9 mph - N/A   Clear
6:55 AM 62.6 °F 48.2 °F 59% 29.68 in 10.0 mi SSE 6.9 mph - N/A   Clear
7:15 AM 60.8 °F 50.0 °F 68% 29.68 in 10.0 mi SE 9.2 mph - N/A   Clear
7:35 AM 60.8 °F 51.8 °F 72% 29.67 in 10.0 mi SSE 8.1 mph - N/A   Clear
7:55 AM 66.2 °F 53.6 °F 64% 29.66 in 10.0 mi South 6.9 mph - N/A   Clear
8:15 AM 71.6 °F 51.8 °F 50% 29.66 in 10.0 mi South 5.8 mph - N/A   Clear
8:35 AM 73.4 °F 51.8 °F 47% 29.65 in 10.0 mi SSW 10.4 mph - N/A   Clear
8:55 AM 78.8 °F 50.0 °F 36% 29.64 in 10.0 mi SSW 15.0 mph - N/A   Clear
9:15 AM 80.6 °F 48.2 °F 32% 29.63 in 10.0 mi SW 17.3 mph - N/A   Clear
9:35 AM 82.4 °F 48.2 °F 30% 29.62 in 10.0 mi SSW 18.4 mph 24.2 mph N/A   Clear
9:55 AM 84.2 °F 50.0 °F 30% 29.61 in 10.0 mi SSW 18.4 mph 25.3 mph N/A   Clear
10:15 AM 87.8 °F 48.2 °F 25% 29.61 in 3.0 mi SSW 18.4 mph 25.3 mph N/A   Partly Cloudy
10:35 AM 91.4 °F 48.2 °F 23% 29.63 in 10.0 mi WSW 21.9 mph 32.2 mph N/A   Clear
10:55 AM 91.4 °F 48.2 °F 23% 29.62 in 10.0 mi SW 21.9 mph 27.6 mph N/A   Clear
11:15 AM 93.2 °F 48.2 °F 21% 29.61 in 10.0 mi SW 19.6 mph 28.8 mph N/A   Clear
11:35 AM 93.2 °F 48.2 °F 21% 29.61 in 10.0 mi SW 21.9 mph 25.3 mph N/A   Clear
11:55 AM 93.2 °F 48.2 °F 21% 29.61 in 10.0 mi WSW 23.0 mph 31.1 mph N/A   Clear
12:15 PM 93.2 °F 48.2 °F 21% 29.63 in 10.0 mi West 21.9 mph 26.5 mph N/A   Clear
12:35 PM 93.2 °F 46.4 °F 20% 29.64 in 10.0 mi West 21.9 mph 29.9 mph N/A   Clear
12:55 PM 93.2 °F 46.4 °F 20% 29.63 in 10.0 mi West 18.4 mph 25.3 mph N/A   Clear
1:15 PM 95.0 °F 48.2 °F 20% 29.63 in 10.0 mi WNW 23.0 mph 28.8 mph N/A   Clear
1:35 PM 95.0 °F 46.4 °F 19% 29.63 in 10.0 mi West 19.6 mph 26.5 mph N/A   Clear
1:55 PM 93.2 °F 48.2 °F 21% 29.64 in 10.0 mi West 19.6 mph 27.6 mph N/A   Clear
2:15 PM 93.2 °F 50.0 °F 23% 29.64 in 10.0 mi WNW 21.9 mph 26.5 mph N/A   Clear
2:35 PM 93.2 °F 50.0 °F 23% 29.64 in 10.0 mi WNW 16.1 mph 29.9 mph N/A   Clear
2:55 PM 95.0 °F 50.0 °F 22% 29.65 in 10.0 mi WNW 17.3 mph - N/A   Clear
3:15 PM 95.0 °F 51.8 °F 23% 29.65 in 10.0 mi NW 20.7 mph 25.3 mph N/A   Clear
3:35 PM 95.0 °F 48.2 °F 20% 29.65 in 10.0 mi WNW 19.6 mph 25.3 mph N/A   Clear
3:55 PM 93.2 °F 50.0 °F 23% 29.66 in 10.0 mi NW 18.4 mph 26.5 mph N/A   Clear
4:15 PM 93.2 °F 50.0 °F 23% 29.66 in 10.0 mi NW 17.3 mph 20.7 mph N/A   Clear
4:35 PM 93.2 °F 48.2 °F 21% 29.66 in 10.0 mi NW 21.9 mph 26.5 mph N/A   Clear
4:55 PM 93.2 °F 48.2 °F 21% 29.66 in 10.0 mi NNW 18.4 mph 24.2 mph N/A   Clear
5:15 PM 91.4 °F 46.4 °F 21% 29.67 in 10.0 mi NNW 26.5 mph 33.4 mph N/A   Clear
5:35 PM 89.6 °F 46.4 °F 22% 29.67 in 10.0 mi NNW 20.7 mph 31.1 mph N/A   Clear
5:55 PM 89.6 °F 46.4 °F 22% 29.68 in 10.0 mi NNW 26.5 mph 31.1 mph N/A   Clear
6:15 PM 87.8 °F 42.8 °F 21% 29.68 in 10.0 mi NNW 24.2 mph 29.9 mph N/A   Clear
6:35 PM 87.8 °F 42.8 °F 21% 29.69 in 10.0 mi NNW 20.7 mph 31.1 mph N/A   Clear
6:55 PM 86.0 °F 39.2 °F 19% 29.70 in 10.0 mi NNW 20.7 mph 28.8 mph N/A   Clear
7:15 PM 84.2 °F 37.4 °F 19% 29.70 in 10.0 mi NNW 16.1 mph - N/A   Clear
7:35 PM 84.2 °F 37.4 °F 19% 29.72 in 10.0 mi NNW 17.3 mph 26.5 mph N/A   Clear
7:55 PM 82.4 °F 35.6 °F 19% 29.72 in 10.0 mi NNW 16.1 mph - N/A   Clear
8:15 PM 78.8 °F 37.4 °F 23% 29.73 in 10.0 mi NNW 11.5 mph - N/A   Clear
8:35 PM 73.4 °F 39.2 °F 29% 29.74 in 10.0 mi NNW 10.4 mph - N/A   Clear
8:55 PM 73.4 °F 39.2 °F 29% 29.74 in 10.0 mi NNW 10.4 mph - N/A   Clear
9:15 PM 71.6 °F 37.4 °F 29% 29.75 in 10.0 mi NW 11.5 mph - N/A   Clear
9:35 PM 73.4 °F 35.6 °F 25% 29.76 in 10.0 mi NNW 13.8 mph - N/A   Clear
9:55 PM 71.6 °F 35.6 °F 27% 29.77 in 10.0 mi NNW 11.5 mph - N/A   Clear
10:15 PM 69.8 °F 35.6 °F 28% 29.78 in 10.0 mi NNW 12.7 mph - N/A   Clear
10:35 PM 66.2 °F 35.6 °F 32% 29.79 in 10.0 mi NNW 12.7 mph - N/A   Clear
10:55 PM 66.2 °F 35.6 °F 32% 29.79 in 10.0 mi NNW 11.5 mph - N/A   Clear
11:15 PM 66.2 °F 35.6 °F 32% 29.80 in 10.0 mi NNW 16.1 mph - N/A   Clear
11:35 PM 68.0 °F 35.6 °F 30% 29.80 in 10.0 mi NNW 17.3 mph - N/A   Clear
11:55 PM 66.2 °F 35.6 °F 32% 29.81 in 10.0 mi NNW 17.3 mph - N/A   Clear